Location: Skalnate Pleso
(49.1889°N, 20.2450°E)
Time: 16:24:38
(UTC+01:00)

USA 116 - Pass Details

Date: 19 November 2019
Orbit: 405 x 834 km, 97.9° (Epoch: 18 November)

Event Time Altitude Azimuth Distance (km) Brightness Sun altitude
Rises 05:29:19 0° 182° (S) 2,382 7.1 -13.7°
Reaches altitude 10° 05:31:18 10° 190° (S) 1,556 6.1 -13.4°
Maximum altitude 05:34:27 40° 262° (W) 701 3.8 -12.9°
Drops below altitude 10° 05:37:57 10° 334° (NNW) 1,731 5.9 -12.4°
Enters shadow 05:38:19 - 335° (NNW) 1,879 6.1 -12.3°
